Retour au catalogue

CZ-4 DEB

ActifSSO
NORAD 26132·DEBRIS·🇨🇳 China

Lancé Oct 14, 1999 depuis Taiyuan Satellite Launch Center

Loading…

Prochains Passages (prochaines 24 heures)

TLE

FraisSource: Space-Track

Époque: Sep 14, 2026, 05:01 UTC

1 26132U 99057U   26257.20912675  .00002866  00000-0  60880-3 0  9995
2 26132  98.6412 354.9599 0098981   5.3655  24.2889 14.56917527380864

Suivez CZ-4 DEB en temps réel avec AllMySat

Download on the App Store